Location: *
(49.6619°S, 177.4603°W)
Time: 05:29:42
(UTC+00:00)

USA 215 - Pass Details

Date: 31 January 2023
Orbit: 1102 x 1105 km, 123.0° (Epoch: 27 March)

Event Time Altitude Azimuth Distance (km) Brightness Sun altitude
Rises 09:14:28 0° 122° (ESE) 3,955 6.1 -13.3°
Reaches altitude 10° 09:17:17 10° 112° (ESE) 2,991 5.4 -13.6°
Maximum altitude 09:23:09 33° 50° (NE) 1,777 3.8 -14.2°
Drops below altitude 10° 09:28:57 10° 347° (NNW) 2,966 5.2 -14.8°
Sets 09:31:43 0° 338° (NNW) 3,917 5.9 -15.0°
